Waarnemingen

Advertentie
Mijn weer
Beauvechain, België (6458): temperatuur & dauwpunt: 12.06.2019 13:00:00 - 18.06.2019 13:00:00 (CEST)Beauvechain, België (6458): windsnelheid & windstoten: 12.06.2019 13:00:00 - 18.06.2019 13:00:00 (CEST)Beauvechain, België (6458): windrichting: 12.06.2019 13:00:00 - 18.06.2019 13:00:00 (CEST)Beauvechain, België (6458): luchtdruk: 12.06.2019 13:00:00 - 18.06.2019 13:00:00 (CEST)Beauvechain, België (6458): zicht: 12.06.2019 13:00:00 - 18.06.2019 13:00:00 (CEST)
Datum & Tijd tt [°C] td [°C] ff [km/u] ff [kn] fx [km/u] fx [kn] dd ppp [hPa] vv [km]
18.06.2019 13:00:00 24,5 15,4 4 2 11 6 N 1014,6 20
18.06.2019 12:00:00 23,7 15,6 7 4 11 6 NNO 1014,7 15
18.06.2019 11:00:00 22,2 15,0 4 2 - - N 1015,2 15
18.06.2019 10:00:00 20,8 15,7 4 2 7 4 N 1015,3 15
18.06.2019 09:00:00 19,2 15,9 4 2 7 4 N 1016,0 12
18.06.2019 08:00:00 17,0 14,9 4 2 - - N 1016,0 14
18.06.2019 07:00:00 15,8 13,8 4 2 7 4 N 1016,0 15
18.06.2019 06:00:00 14,3 12,0 4 2 7 4 N 1016,0 12
18.06.2019 05:00:00 16,4 12,0 4 2 - - N 1015,8 18
18.06.2019 04:00:00 18,0 12,7 4 2 4 2 N 1016,1 20
18.06.2019 03:00:00 17,7 12,4 4 2 4 2 N 1016,7 20
18.06.2019 02:00:00 18,2 12,4 4 2 - - N 1016,8 20
18.06.2019 01:00:00 18,7 12,2 4 2 4 2 N 1017,2 20
18.06.2019 00:00:00 19,2 12,5 4 2 4 2 N 1017,2 20
17.06.2019 23:00:00 19,7 12,8 4 2 - - N 1017,1 20
17.06.2019 22:00:00 21,7 12,2 4 2 4 2 N 1017,1 20
17.06.2019 21:00:00 23,6 12,6 4 2 7 4 N 1017,0 20
17.06.2019 20:00:00 24,1 13,0 4 2 - - N 1017,0 20
17.06.2019 19:00:00 25,2 12,4 4 2 7 4 N 1017,2 20
17.06.2019 18:00:00 25,0 12,0 4 2 11 6 N 1017,7 20
17.06.2019 17:00:00 23,5 11,1 4 2 - - N 1018,2 20
17.06.2019 16:00:00 23,9 11,0 4 2 18 10 N 1018,6 20
17.06.2019 15:00:00 23,8 11,8 7 4 18 10 ZZO 1019,0 20
17.06.2019 14:00:00 23,5 13,3 4 2 - - N 1019,3 20
17.06.2019 13:00:00 23,4 12,8 7 4 22 12 Z 1019,7 20
17.06.2019 12:00:00 22,1 11,6 11 6 22 12 ZZW 1020,2 20
17.06.2019 11:00:00 21,3 12,6 7 4 - - Z 1020,6 20
17.06.2019 10:00:00 20,1 13,0 7 4 14 8 Z 1020,8 20
17.06.2019 09:00:00 18,9 13,8 11 6 14 8 Z 1021,1 20
17.06.2019 08:00:00 17,1 12,4 4 2 - - N 1021,1 20
17.06.2019 07:00:00 15,3 11,2 7 4 14 8 ZZO 1021,0 20
17.06.2019 06:00:00 14,1 11,0 11 6 14 8 ZZO 1021,2 20
17.06.2019 05:00:00 14,1 11,2 7 4 - - ZO 1021,1 20
17.06.2019 04:00:00 14,5 11,5 7 4 7 4 ZO 1021,2 20
17.06.2019 03:00:00 14,9 11,7 4 2 11 6 N 1021,3 20
17.06.2019 02:00:00 14,9 11,8 7 4 - - ZO 1021,7 20
17.06.2019 01:00:00 15,1 12,2 4 2 0 0 N 1021,6 20
17.06.2019 00:00:00 15,3 12,6 4 2 4 2 N 1021,8 20
16.06.2019 23:00:00 15,6 13,4 4 2 - - N 1021,7 20
16.06.2019 22:00:00 16,2 14,2 4 2 4 2 N 1021,5 20
16.06.2019 21:00:00 16,6 14,8 4 2 22 12 N 1021,2 20
16.06.2019 20:00:00 15,7 13,3 21 11 - - W 1021,7 4,0
16.06.2019 19:00:00 19,8 11,6 11 6 22 12 ZW 1021,0 20
16.06.2019 18:00:00 21,2 11,9 14 8 29 16 ZZW 1020,7 20
16.06.2019 17:00:00 20,2 11,6 11 6 - - ZW 1021,0 20
16.06.2019 16:00:00 19,7 11,3 18 10 25 14 ZW 1021,1 20
16.06.2019 15:00:00 20,5 11,5 18 10 29 16 ZW 1021,0 19
16.06.2019 14:00:00 19,3 11,8 18 10 - - ZZW 1020,8 20
16.06.2019 13:00:00 18,9 12,4 18 10 29 16 ZW 1021,1 20
16.06.2019 12:00:00 17,5 12,4 18 10 32 18 ZZW 1021,1 20
16.06.2019 11:00:00 16,9 12,2 18 10 - - ZW 1020,6 20
16.06.2019 10:00:00 16,5 12,1 22 12 29 16 ZW 1020,3 20
16.06.2019 09:00:00 16,0 11,4 22 12 29 16 ZW 1020,0 20
16.06.2019 08:00:00 14,7 11,1 14 8 - - ZZW 1019,8 20
16.06.2019 07:00:00 13,3 10,3 11 6 18 10 ZZW 1019,7 20
16.06.2019 06:00:00 12,6 9,4 7 4 11 6 ZZW 1019,0 20
16.06.2019 05:00:00 12,2 8,9 11 6 - - ZZW 1019,1 20
16.06.2019 04:00:00 13,1 9,1 11 6 18 10 ZZW 1018,6 20
16.06.2019 03:00:00 13,8 9,0 11 6 14 8 ZZW 1018,6 20
16.06.2019 02:00:00 14,2 9,2 11 6 - - Z 1018,6 20
16.06.2019 01:00:00 14,7 9,1 7 4 11 6 Z 1018,2 20
16.06.2019 00:00:00 15,1 10,6 4 2 7 4 N 1017,6 20
15.06.2019 23:00:00 15,1 11,7 4 2 - - N 1017,1 20
15.06.2019 22:00:00 16,5 11,6 4 2 11 6 N 1016,7 20
15.06.2019 21:00:00 18,7 12,1 4 2 18 10 N 1016,2 20
15.06.2019 20:00:00 19,6 9,4 14 8 - - WZW 1015,8 20
15.06.2019 19:00:00 20,9 8,4 18 10 32 18 ZW 1015,6 20
15.06.2019 18:00:00 21,5 9,3 22 12 32 18 ZW 1015,3 20
15.06.2019 17:00:00 21,4 9,9 14 8 - - WZW 1015,3 20
15.06.2019 16:00:00 20,2 12,3 11 6 18 10 W 1015,3 20
15.06.2019 15:00:00 19,2 11,9 14 8 29 16 W 1015,3 20
15.06.2019 14:00:00 19,6 14,1 18 10 - - W 1015,6 15
15.06.2019 13:00:00 19,1 15,1 22 12 29 16 WZW 1015,0 10
15.06.2019 12:00:00 16,9 15,0 14 8 22 12 ZW 1014,6 8
15.06.2019 11:00:00 15,5 14,6 7 4 - - ZW 1014,2 3,5
15.06.2019 10:00:00 14,4 13,7 9 5 14 8 ZW 1013,7 3,0
15.06.2019 09:00:00 13,6 13,1 14 8 18 10 WZW 1013,2 2,6
15.06.2019 08:00:00 13,3 12,9 11 6 - - WZW 1012,6 2,3
15.06.2019 07:00:00 13,0 12,5 11 6 25 14 N 1011,2 7
15.06.2019 06:00:00 13,0 12,6 11 6 18 10 W 1011,7 1,4
15.06.2019 05:00:00 14,6 14,3 4 2 - - N 1011,1 1,4
15.06.2019 04:00:00 15,0 14,4 4 2 7 4 N 1011,0 1,6
15.06.2019 03:00:00 15,3 14,3 4 2 18 10 - 1010,8 4,7
15.06.2019 02:00:00 16,5 14,5 11 6 - - N 1010,7 16
15.06.2019 01:00:00 17,1 14,4 7 4 14 8 N 1011,8 20
15.06.2019 00:00:00 18,0 13,6 7 4 11 6 N 1012,2 20
14.06.2019 23:00:00 19,0 13,8 7 4 - - NNW 1012,6 20
14.06.2019 22:00:00 19,8 13,8 4 2 7 4 N 1012,5 20
14.06.2019 21:00:00 20,8 14,2 4 2 7 4 N 1012,2 20
14.06.2019 20:00:00 21,6 14,1 7 4 - - N 1012,2 20
14.06.2019 19:00:00 23,6 13,2 4 2 14 8 N 1012,3 20
14.06.2019 18:00:00 24,0 13,7 11 6 18 10 ZW 1012,7 20
14.06.2019 17:00:00 23,4 12,9 7 4 - - ZW 1013,1 20
14.06.2019 16:00:00 22,3 12,4 18 10 32 18 ZW 1013,7 20
14.06.2019 15:00:00 22,2 13,0 18 10 29 16 ZZW 1014,3 20
14.06.2019 14:00:00 21,5 13,3 18 10 - - ZZW 1014,7 20
14.06.2019 13:00:00 20,0 12,5 14 8 29 16 ZZW 1014,8 20
14.06.2019 12:00:00 19,9 12,9 14 8 32 18 Z 1014,6 20
14.06.2019 11:00:00 18,2 12,0 14 8 - - Z 1014,2 15
14.06.2019 10:00:00 16,3 13,1 11 6 18 10 Z 1013,7 15
14.06.2019 09:00:00 13,0 11,2 11 6 11 6 ZZO 1014,0 8
14.06.2019 08:00:00 14,0 10,3 14 8 - - Z 1014,7 20
14.06.2019 07:00:00 13,1 9,4 11 6 14 8 ZZO 1013,6 20
14.06.2019 06:00:00 13,3 9,3 4 2 7 4 N 1013,2 20
14.06.2019 05:00:00 12,6 9,4 4 2 - - N 1013,0 20
14.06.2019 04:00:00 12,5 9,7 4 2 4 2 N 1013,0 20
14.06.2019 03:00:00 12,8 10,3 4 2 7 4 N 1013,2 20
14.06.2019 02:00:00 12,7 10,8 4 2 - - N 1013,7 20
14.06.2019 01:00:00 13,1 10,9 4 2 7 4 N 1014,0 20
14.06.2019 00:00:00 13,8 10,8 4 2 7 4 N 1013,8 20
13.06.2019 23:00:00 13,8 10,9 4 2 - - N 1013,5 20
13.06.2019 22:00:00 15,8 10,6 4 2 29 16 N 1012,3 20
13.06.2019 21:00:00 16,7 10,4 14 8 32 18 Z 1011,7 20
13.06.2019 20:00:00 17,3 9,9 22 12 - - Z 1011,5 20
13.06.2019 19:00:00 17,8 9,1 32 18 50 27 Z 1010,8 20
13.06.2019 18:00:00 18,9 9,0 29 16 47 25 ZZW 1011,1 10
13.06.2019 17:00:00 17,3 9,1 29 16 - - Z 1011,2 20
13.06.2019 16:00:00 18,0 10,0 22 12 40 21 ZZW 1011,3 20
13.06.2019 15:00:00 15,8 9,8 18 10 50 27 ZW 1012,0 12
13.06.2019 14:00:00 16,7 8,0 25 14 - - ZZW 1011,8 20
13.06.2019 13:00:00 16,1 8,1 25 14 43 23 Z 1012,2 20
13.06.2019 12:00:00 15,9 8,4 29 16 43 23 ZZW 1012,2 20
13.06.2019 11:00:00 15,3 8,8 29 16 - - ZZW 1012,0 20
13.06.2019 10:00:00 13,9 8,0 29 16 43 23 ZZW 1012,0 20
13.06.2019 09:00:00 13,8 8,4 25 14 36 19 ZZW 1011,8 20
13.06.2019 08:00:00 12,6 8,7 22 12 - - Z 1011,7 20
13.06.2019 07:00:00 12,0 8,9 18 10 29 16 Z 1011,6 10
13.06.2019 06:00:00 11,1 8,7 14 8 29 16 ZZW 1011,0 20
13.06.2019 05:00:00 10,8 8,8 14 8 - - Z 1010,5 20
13.06.2019 04:00:00 10,8 8,6 14 8 25 14 Z 1010,2 20
13.06.2019 03:00:00 11,3 8,4 14 8 22 12 Z 1010,3 20
13.06.2019 02:00:00 11,5 8,2 14 8 - - Z 1010,6 20
13.06.2019 01:00:00 11,3 7,9 7 4 18 10 ZZO 1010,6 20
13.06.2019 00:00:00 11,9 8,4 11 6 18 10 ZZO 1010,6 20
12.06.2019 23:00:00 12,8 8,2 7 4 - - ZZO 1010,7 20
12.06.2019 22:00:00 14,4 7,8 7 4 32 18 Z 1010,2 20
12.06.2019 21:00:00 15,9 9,4 11 6 22 12 ZZW 1009,7 20
12.06.2019 20:00:00 16,0 10,1 13 7 - - ZW 1009,5 10
12.06.2019 19:00:00 15,2 9,5 14 8 58 31 ZW 1009,6 20
12.06.2019 18:00:00 17,4 7,9 22 12 32 18 ZZW 1009,2 20
12.06.2019 17:00:00 17,3 10,0 18 10 - - ZW 1009,2 20
12.06.2019 16:00:00 16,4 9,9 22 12 40 21 ZW 1009,6 20
12.06.2019 15:00:00 15,7 10,2 31 17 47 25 ZW 1009,7 10
12.06.2019 14:00:00 13,4 11,8 22 12 - - ZW 1010,0 4,0
12.06.2019 13:00:00 13,8 12,2 11 6 22 12 ZW 1009,8 10

tt = temperatuur
td = dauwpunt
ff = windsnelheid
fx = windstoten
dd = windrichting
ppp = luchtdruk
vv = zicht

Weerstations in de omgeving